Location: Courcelles
(49.2596°N, 1.7419°E)
Time: 00:27:48
(UTC+00:00)

Cosmos 2297 Rocket - Pass Details

Date: 17 November 2025
Orbit: 837 x 844 km, 71.0° (Epoch: 05 December)

Event Time Altitude Azimuth Distance (km) Brightness Sun altitude
Rises 18:43:08 0° 332° (NNW) 3,411 5.7 -24.9°
Reaches altitude 10° 18:47:40 10° 6° (N) 2,474 4.6 -25.7°
Enters shadow 18:48:13 11° 11° (N) 2,423 4.5 -25.8°
